TimeEDT,TemperatureF,Dew PointF,Humidity,Sea Level PressureIn,VisibilityMPH,Wind Direction,Wind SpeedMPH,Gust SpeedMPH,PrecipitationIn,Events,Conditions,WindDirDegrees,DateUTC
12:15 AM,75.2,75.2,100,30.20,10.0,Calm,Calm,-,N/A,,Clear,0,2013-07-09 04:15:00
12:35 AM,75.2,75.2,100,30.19,10.0,SSE,3.5,-,N/A,,Clear,150,2013-07-09 04:35:00
12:55 AM,75.2,75.2,100,30.20,10.0,South,4.6,-,N/A,,Clear,170,2013-07-09 04:55:00
1:15 AM,75.2,75.2,100,30.19,10.0,SSW,3.5,-,N/A,,Scattered Clouds,200,2013-07-09 05:15:00
1:35 AM,75.2,75.2,100,30.18,10.0,Calm,Calm,-,N/A,,Scattered Clouds,0,2013-07-09 05:35:00
1:55 AM,75.2,75.2,100,30.18,10.0,Calm,Calm,-,N/A,,Clear,0,2013-07-09 05:55:00
2:15 AM,75.2,75.2,100,30.18,10.0,Calm,Calm,-,N/A,,Clear,0,2013-07-09 06:15:00
2:35 AM,75.2,75.2,100,30.17,10.0,Calm,Calm,-,N/A,,Clear,0,2013-07-09 06:35:00
2:55 AM,75.2,75.2,100,30.17,10.0,Calm,Calm,-,N/A,Thunderstorm,Thunderstorm,0,2013-07-09 06:55:00
3:15 AM,75.2,75.2,100,30.17,10.0,Calm,Calm,-,N/A,,Scattered Clouds,0,2013-07-09 07:15:00
3:35 AM,75.2,75.2,100,30.17,10.0,East,3.5,-,N/A,,Mostly Cloudy,100,2013-07-09 07:35:00
3:55 AM,75.2,75.2,100,30.17,10.0,Calm,Calm,-,N/A,,Mostly Cloudy,0,2013-07-09 07:55:00
4:15 AM,75.2,75.2,100,30.17,10.0,Calm,Calm,-,N/A,,Mostly Cloudy,0,2013-07-09 08:15:00
4:35 AM,75.2,75.2,100,30.15,10.0,West,5.8,-,N/A,,Scattered Clouds,280,2013-07-09 08:35:00
4:55 AM,75.2,75.2,100,30.16,10.0,SSE,4.6,-,N/A,,Clear,160,2013-07-09 08:55:00
5:15 AM,75.2,75.2,100,30.16,10.0,SW,3.5,-,N/A,,Clear,230,2013-07-09 09:15:00
5:35 AM,75.2,75.2,100,30.16,10.0,East,3.5,-,N/A,,Clear,90,2013-07-09 09:35:00
5:55 AM,75.2,75.2,100,30.16,10.0,Calm,Calm,-,N/A,,Clear,0,2013-07-09 09:55:00
6:15 AM,75.2,75.2,100,30.17,7.0,ESE,3.5,-,N/A,,Clear,120,2013-07-09 10:15:00
6:35 AM,75.2,75.2,100,30.17,7.0,SSE,3.5,-,N/A,,Mostly Cloudy,160,2013-07-09 10:35:00
6:55 AM,75.2,75.2,100,30.17,10.0,Calm,Calm,-,N/A,,Scattered Clouds,0,2013-07-09 10:55:00
7:15 AM,75.2,75.2,100,30.17,10.0,Calm,Calm,-,N/A,,Clear,0,2013-07-09 11:15:00
7:35 AM,75.2,75.2,100,30.17,10.0,Calm,Calm,-,N/A,,Clear,0,2013-07-09 11:35:00
7:55 AM,75.2,75.2,100,30.17,10.0,Calm,Calm,-,N/A,,Clear,0,2013-07-09 11:55:00
8:15 AM,77.0,77.0,100,30.17,10.0,West,4.6,-,N/A,,Clear,270,2013-07-09 12:15:00
8:35 AM,77.0,75.2,94,30.18,10.0,Calm,Calm,-,N/A,,Clear,0,2013-07-09 12:35:00
8:55 AM,77.0,77.0,100,30.19,10.0,Calm,Calm,-,N/A,,Clear,0,2013-07-09 12:55:00
9:15 AM,77.0,77.0,100,30.19,10.0,Calm,Calm,-,N/A,,Clear,0,2013-07-09 13:15:00
9:35 AM,80.6,78.8,94,30.20,10.0,ESE,3.5,-,N/A,,Clear,120,2013-07-09 13:35:00
9:55 AM,80.6,77.0,89,30.19,10.0,Calm,Calm,-,N/A,,Clear,0,2013-07-09 13:55:00
10:15 AM,80.6,77.0,89,30.19,10.0,Calm,Calm,-,N/A,,Scattered Clouds,0,2013-07-09 14:15:00
10:35 AM,80.6,77.0,89,30.19,10.0,South,3.5,-,N/A,,Scattered Clouds,180,2013-07-09 14:35:00
10:55 AM,80.6,77.0,89,30.19,10.0,SW,3.5,-,N/A,,Scattered Clouds,220,2013-07-09 14:55:00
11:15 AM,82.4,77.0,84,30.19,10.0,SSW,3.5,-,N/A,,Scattered Clouds,200,2013-07-09 15:15:00
11:35 AM,82.4,73.4,74,30.20,10.0,Calm,Calm,-,N/A,,Scattered Clouds,0,2013-07-09 15:35:00
11:55 AM,86.0,75.2,70,30.19,10.0,South,4.6,-,N/A,,Scattered Clouds,180,2013-07-09 15:55:00
12:15 PM,86.0,73.4,66,30.18,10.0,South,6.9,-,N/A,,Scattered Clouds,180,2013-07-09 16:15:00
12:35 PM,86.0,71.6,62,30.18,10.0,South,3.5,-,N/A,,Scattered Clouds,190,2013-07-09 16:35:00
12:55 PM,86.0,73.4,66,30.18,10.0,South,5.8,-,N/A,,Clear,170,2013-07-09 16:55:00
1:15 PM,86.0,73.4,66,30.17,10.0,SSW,3.5,-,N/A,,Scattered Clouds,210,2013-07-09 17:15:00
1:35 PM,87.8,71.6,58,30.16,10.0,South,4.6,-,N/A,,Scattered Clouds,190,2013-07-09 17:35:00
1:55 PM,87.8,73.4,62,30.16,10.0,South,6.9,-,N/A,,Scattered Clouds,190,2013-07-09 17:55:00
2:15 PM,87.8,71.6,58,30.16,10.0,SSW,5.8,-,N/A,,Clear,210,2013-07-09 18:15:00
2:35 PM,87.8,71.6,58,30.15,10.0,SSW,6.9,-,N/A,,Clear,210,2013-07-09 18:35:00
2:55 PM,87.8,69.8,55,30.14,10.0,SSW,5.8,-,N/A,,Clear,210,2013-07-09 18:55:00
3:15 PM,86.0,71.6,62,30.13,10.0,SSW,4.6,-,N/A,,Scattered Clouds,210,2013-07-09 19:15:00
3:35 PM,87.8,71.6,58,30.11,10.0,SSW,3.5,-,N/A,,Scattered Clouds,200,2013-07-09 19:35:00
3:55 PM,89.6,71.6,55,30.10,10.0,South,4.6,-,N/A,,Scattered Clouds,180,2013-07-09 19:55:00
4:15 PM,87.8,71.6,58,30.11,10.0,SW,4.6,-,N/A,,Scattered Clouds,220,2013-07-09 20:15:00
4:35 PM,87.8,73.4,62,30.10,10.0,South,4.6,-,N/A,,Clear,190,2013-07-09 20:35:00
4:55 PM,87.8,73.4,62,30.09,10.0,SSW,5.8,-,N/A,,Clear,210,2013-07-09 20:55:00
5:15 PM,87.8,71.6,58,30.09,10.0,SSW,4.6,-,N/A,,Clear,200,2013-07-09 21:15:00
5:35 PM,87.8,71.6,58,30.09,10.0,SSW,5.8,-,N/A,,Clear,210,2013-07-09 21:35:00
5:55 PM,86.0,73.4,66,30.08,10.0,SW,3.5,-,N/A,,Scattered Clouds,230,2013-07-09 21:55:00
6:15 PM,86.0,73.4,66,30.09,10.0,Calm,Calm,-,N/A,,Scattered Clouds,0,2013-07-09 22:15:00
6:35 PM,86.0,73.4,66,30.09,10.0,West,5.8,-,N/A,,Scattered Clouds,270,2013-07-09 22:35:00
6:55 PM,86.0,77.0,74,30.09,10.0,WSW,3.5,-,N/A,Rain,Light Rain,240,2013-07-09 22:55:00
7:15 PM,86.0,75.2,70,30.09,10.0,Calm,Calm,-,N/A,,Clear,0,2013-07-09 23:15:00
7:35 PM,86.0,77.0,74,30.09,10.0,West,4.6,-,N/A,,Clear,260,2013-07-09 23:35:00
7:55 PM,82.4,77.0,84,30.09,10.0,SW,4.6,-,N/A,,Clear,230,2013-07-09 23:55:00
8:15 PM,82.4,77.0,84,30.09,10.0,WSW,3.5,-,N/A,,Clear,250,2013-07-10 00:15:00
8:35 PM,80.6,75.2,84,30.10,10.0,SSW,3.5,-,N/A,,Clear,200,2013-07-10 00:35:00
8:55 PM,80.6,77.0,89,30.10,10.0,Calm,Calm,-,N/A,,Clear,0,2013-07-10 00:55:00
9:15 PM,80.6,78.8,94,30.11,10.0,Calm,Calm,-,N/A,,Clear,0,2013-07-10 01:15:00
9:35 PM,80.6,78.8,94,30.11,10.0,SW,4.6,-,N/A,,Clear,230,2013-07-10 01:35:00
9:55 PM,80.6,78.8,94,30.11,10.0,SSW,3.5,-,N/A,Thunderstorm,Clear,210,2013-07-10 01:55:00
10:15 PM,80.6,78.8,94,30.11,10.0,Calm,Calm,-,N/A,Thunderstorm,Clear,0,2013-07-10 02:15:00
10:35 PM,80.6,78.8,94,30.13,10.0,South,3.5,-,N/A,Thunderstorm,Clear,180,2013-07-10 02:35:00
10:55 PM,80.6,78.8,94,30.12,10.0,SW,3.5,-,N/A,Thunderstorm,Thunderstorm,220,2013-07-10 02:55:00
11:15 PM,80.6,78.8,94,30.13,10.0,Calm,Calm,-,N/A,Thunderstorm,Scattered Clouds,0,2013-07-10 03:15:00
11:35 PM,80.6,78.8,94,30.13,10.0,Calm,Calm,-,N/A,Thunderstorm,Scattered Clouds,0,2013-07-10 03:35:00
11:55 PM,77.0,77.0,100,30.15,5.0,NW,8.1,-,N/A,Rain-Thunderstorm,Thunderstorms and Rain,320,2013-07-10 03:55:00